Flag for Ireland Weather past 2 weeks in Cork, Ireland

Now
63 °F

Overcast.


Feels Like: 63 °F
Forecast: 52 / 66 °F
Wind: 9 mph from West

Location: Cork Airport

Current Time: Aug 29, 2014 at 5:57:58 PM

Latest Report: Aug 29, 2014 at 5:00 PM


Visibility: 17 mi

Pressure: 29.83 "Hg

Humidity: 85%

Dew point: 58 °F

Location of CorkLocation

Historic Weather in Cork — Graph

°F

Cork temperature yesterday

Maximum temperature yesterday: 62 °F (at 12:00 PM)
Minimum temperature yesterday: 49 °F (at 6:00 AM)
Average temperature yesterday: 57 °F

Past Weeks' High & Low Weather Summary

 TemperatureHumidityPressure
High66 °F (Aug 26, 3:00 PM)100% (Aug 24, 7:00 PM)30.28 "Hg (Aug 24, 7:00 PM)
Low44 °F (Aug 23, 7:00 AM)47% (Aug 23, 4:00 PM)29.35 "Hg (Aug 25, 8:00 PM)
Average56 °F81%29.92 "Hg
* Reported Aug 14 4:00 PM — Aug 29 4:00 PM, Cork, Weather by CustomWeather, © 2014

Note: Actual official high and low records may vary slightly from our data, if they occured in-between our weather recording intervals... More about our weather records

Advertising

Cork weather history for previous 24 hours

 ConditionsComfort  
Time TempWeatherWind HumidityBarometerVisibility
4:00 PM
Aug 29
63 °FOvercast.9 mph84%29.83 "Hg17 mi
3:00 PM63 °FOvercast.9 mph87%29.83 "Hg16 mi
2:00 PM62 °FOvercast.10 mph87%29.81 "Hg16 mi
1:00 PM62 °FLow clouds.9 mph89%29.80 "Hg16 mi
12:00 PM61 °FLow clouds.10 mph90%29.79 "Hg16 mi
11:00 AM61 °FLight rain. Overcast.10 mph88%29.78 "Hg12 mi
10:00 AM58 °FLow clouds.8 mph94%29.78 "Hg16 mi
9:00 AM57 °FLow clouds.6 mph97%29.78 "Hg10 mi
8:00 AM56 °FLow clouds.7 mph95%29.77 "Hg15 mi
7:00 AM55 °FSprinkles. Low clouds.7 mph94%29.75 "Hg12 mi
6:00 AM55 °FPassing clouds.7 mph91%29.75 "Hg12 mi
5:00 AM56 °FOvercast.8 mph88%29.74 "Hg12 mi
4:00 AM55 °FSprinkles. Overcast.9 mph91%29.72 "Hg12 mi
3:00 AM54 °FOvercast.8 mph89%29.72 "Hg19 mi
2:00 AM55 °FOvercast.9 mph91%29.72 "Hg19 mi
1:00 AM55 °FOvercast.8 mph91%29.72 "Hg19 mi
12:00 AM55 °FOvercast.9 mph90%29.71 "Hg15 mi
11:00 PM
Aug 28
56 °FOvercast.9 mph88%29.70 "Hg15 mi
10:00 PM57 °FOvercast.10 mph87%29.69 "Hg15 mi
9:00 PM56 °FOvercast.10 mph90%29.68 "Hg16 mi
8:00 PM58 °FOvercast.10 mph91%29.66 "Hg10 mi
7:00 PM58 °FSprinkles. Overcast.10 mph92%29.66 "Hg16 mi
6:00 PM59 °FOvercast.13 mph88%29.65 "Hg16 mi
5:00 PM60 °FSprinkles. Overcast.12 mph89%29.65 "Hg19 mi
Weather by CustomWeather, © 2014

See weather overviewHow to use our weather pages